Regional Weather Roundup
Issued by NWS

Home | Current Version | Previous Version | Graphics & Text | Print | Product List | Glossary On
Versions: 1 2 3 4 5 6 7 8 9 10 11 12 13 14 15 16 17 18 19 20 21 22 23 24 25 26 27 28 29 30 31 32 33 34 35 36 37 38 39 40 41 42 43 44 45 46 47 48 49 50
000
ASUS43 KIND 211300
RWRIN

WEATHER ROUNDUP FOR INDIANA
NATIONAL WEATHER SERVICE INDIANAPOLIS IN
900 AM EDT SAT OCT 21 2017

NOTE: "FAIR" INDICATES FEW OR NO CLOUDS BELOW 12,000 FEET WITH NO
SIGNIFICANT WEATHER AND/OR OBSTRUCTIONS TO VISIBILITY.

* - STATION DOES NOT REPORT WEATHER SUCH AS PRECIPITATION OR FOG.

+ - STATION NOT QUALITY CONTROLLED BY THE NATIONAL WEATHER SERVICE.
    USE DATA WITH CAUTION...ESPECIALLY DEWPOINT AND RELATIVE
    HUMIDITY OBSERVATIONS.

INZ001>003-010>013-019-020-211400-
NORTHWEST INDIANA

CITY           SKY/WX    TMP DP  RH WIND       PRES   REMARKS
GARY /AIRPORT/ PTCLDY    59  48  67 S8        30.11R
MONTICELLO +   MOCLDY    55  51  87 SE3       30.16R
RENSSELAER +   PTCLDY    55  45  67 S9        30.14R

$$

LMZ046-743>745-211400-
SOUTHERN LAKE MICHIGAN

STATION/POSITION TIME  TEMP    WIND        PRES    WAVE
                       AIR SEA DIR/SP/G            HT
                 (UTC) (F)     (DEG/KT/KT) (MB)    (FT)
BURNS HARBOR     1230   60     180/ 13/ 18 1019.6R
MICHIGAN CITY    1230   61     160/ 13/ 15   N/A
5NW MICH CITY    1250   59 58  180/ 12/ 16   N/A     1

$$

INZ004-005-014>016-021>024-211400-
NORTH CENTRAL INDIANA

CITY           SKY/WX    TMP DP  RH WIND       PRES   REMARKS
ELKHART        CLEAR     57  48  72 SE7       30.16R
GOSHEN         PTCLDY    56  48  74 SE6       30.17R
PERU/GRISSOM   CLOUDY    56  52  88 S7        30.17R
SOUTH BEND     CLOUDY    57  50  77 S10       30.15S

$$

INZ006>009-017-018-025>027-211400-
NORTHEAST INDIANA

CITY           SKY/WX    TMP DP  RH WIND       PRES   REMARKS
FORT WAYNE     MOCLDY    51  48  89 SE3       30.20R
KENDALLVILLE + CLOUDY    55  51  87 S7        30.20R

$$

INZ028-029-035-036-043>045-051>053-211400-
WEST CENTRAL INDIANA

CITY           SKY/WX    TMP DP  RH WIND       PRES   REMARKS
LAFAYETTE      PTCLDY    55  50  83 SE3       30.16R
TERRE HAUTE    CLOUDY    52  47  83 S3        30.17R

$$

INZ030>032-037>040-046>048-054>057-064-065-211400-
CENTRAL INDIANA

CITY           SKY/WX    TMP DP  RH WIND       PRES   REMARKS
ANDERSON       MOSUNNY   55  50  82 S3        30.21
COLUMBUS       SUNNY     46  45  93 CALM      30.22
GREENWOOD *+   CLOUDY    58  53  83 S7        30.20S
INDIANAPOLIS   CLOUDY    56  51  84 SE5       30.20R
-EAGLE CREEK   CLOUDY    54  50  86 SE3       30.19R
KOKOMO +       PTCLDY    55  51  86 S5        30.20R
MT COMFORT *+  PTCLDY    55  54  94 S5        30.21R
SHELBYVILLE    CLOUDY    57  50  77 SE8       30.20R

$$

INZ033-034-041-042-049-050-058-059-211400-
EAST CENTRAL INDIANA

CITY           SKY/WX    TMP DP  RH WIND       PRES   REMARKS
MUNCIE         CLOUDY    59  50  72 S5        30.21R
RICHMOND +     MOSUNNY   54  52  94 SE6       30.24R

$$

INZ060-061-067>069-081>083-085>088-211400-
SOUTHWEST INDIANA

CITY           SKY/WX    TMP DP  RH WIND       PRES   REMARKS
EVANSVILLE     CLOUDY    54  48  80 CALM      30.19R
HUNTINGBURG +  PTCLDY    54  49  83 SE7       30.21R

$$

INZ062-063-066-070>080-084-089>092-211400-
SOUTH CENTRAL AND SOUTHEAST INDIANA

CITY           SKY/WX    TMP DP  RH WIND       PRES   REMARKS
BLOOMINGTON    CLOUDY    55  49  80 SE7       30.20R
MADISON *+     MOSUNNY   55  52  88 CALM      30.25R
SEYMOUR +      PTSUNNY   55  50  82 SE6       30.21R

$$





USA.gov is the U.S. government's official web portal to all federal, state and local government web resources and services.